Regional Weather Roundup
Issued by NWS

Home | Current Version | Previous Version | Text Only | Print | Product List | Glossary Off
Versions: 1 2 3 4 5 6 7 8 9 10 11 12 13 14 15 16 17 18 19 20 21 22 23 24 25 26 27 28 29 30 31 32 33 34 35 36 37 38 39 40 41 42 43 44 45 46 47 48 49 50

147
ASUS43 KMKX 031721
RWRWI

WISCONSIN REGIONAL WEATHER ROUNDUP
NATIONAL WEATHER SERVICE MILWAUKEE/SULLIVAN WI
1100 AM CST SAT DEC 03 2016

NOTE: "FAIR" INDICATES FEW OR NO CLOUDS BELOW 12,000 FEET WITH NO
SIGNIFICANT WEATHER AND/OR OBSTRUCTIONS TO VISIBILITY.

WIZ001-002-006>008-014>016-023>028-031800-
NORTHWEST WISCONSIN

CITY           SKY/WX    TMP DP  RH WIND       PRES   REMARKS
SUPERIOR ARPT  CLOUDY    29  25  83 CALM      30.28F
ASHLAND        CLOUDY    31  25  78 SW7       30.27F WCI  24
HAYWARD        CLOUDY    29  24  82 SW3       30.26F
SIREN          CLOUDY    29  25  84 W3        30.27F
CUMBERLAND     FLURRIES  28  23  80 CALM      30.25F
RICE LAKE      CLOUDY    30  24  78 CALM      30.28F
CHETEK         CLOUDY    30  23  74 CALM      30.27F
LADYSMITH      CLOUDY    30  27  86 CALM      30.27F
EAU CLAIRE     CLOUDY    29  24  82 SW5       30.28F WCI  24
MENOMONIE      CLOUDY    31  25  77 SW5       30.28F WCI  26
NEW RICHMOND   CLOUDY    29  25  82 SW3       30.27F
OSCEOLA        CLOUDY    30  24  76 W3        30.31F
$$

WIZ003>005-009-010-017-018-031800-
NORTH CENTRAL WISCONSIN

CITY           SKY/WX    TMP DP  RH WIND       PRES   REMARKS
MANITOWISH WTR CLOUDY    27  26  94 SW3       30.23S
ARBOR VITAE    CLOUDY    29  24  81 SW6       30.23F WCI  23
WOODRUFF       CLOUDY    29  24  81 SW6       30.23F WCI  23
RHINELANDER    CLOUDY    28  23  81 E5        30.24F WCI  23
EAGLE RIVER    CLOUDY    27  21  77 SW6       30.22F WCI  21
LAND O LAKES   CLOUDY    29  25  85 SW5       30.24S WCI  24
PHILLIPS       CLOUDY    28  25  89 W5        30.23F WCI  22
TOMAHAWK       CLOUDY    28  22  76 CALM      30.25F
MEDFORD        CLOUDY    28  20  73 CALM      30.24F
MERRILL        CLOUDY    28  23  81 CALM      30.26F
$$

WIZ029-030-035-036-043>047-031800-
CENTRAL WISCONSIN

CITY           SKY/WX    TMP DP  RH WIND       PRES   REMARKS
WAUSAU         CLOUDY    29  21  72 N8        30.25F WCI  21
MOSINEE        CLOUDY    28  25  86 W5        30.26F WCI  23
MARSHFIELD     CLOUDY    28  23  81 W7        30.25F WCI  21
STEVENS POINT  CLOUDY    29  22  74 CALM      30.27F
WAUPACA        CLOUDY    33  23  65 CALM      30.27F
WAUTOMA        CLOUDY    32  22  66 W6        30.29F WCI  26
WISC RAPIDS    CLOUDY    30  23  75 W7        30.28F WCI  23
CAMP DOUGLAS   PTSUNNY   30  21  69 NW8       30.28F WCI  23
$$

WIZ011>013-019>022-031-037>040-048>050-031800-
NORTHEAST WISCONSIN

CITY           SKY/WX    TMP DP  RH WIND       PRES   REMARKS
ANTIGO         CLOUDY    28  22  80 NW8       30.25F WCI  19
SHAWANO        CLOUDY    33  24  68 W6        30.28F WCI  28
OCONTO         CLOUDY    33  26  75 W8        30.28F WCI  25
STURGEON BAY   CLOUDY    33  27  78 W7        30.27F WCI  27
GREEN BAY      CLOUDY    33  26  75 W6        30.29F WCI  28
MANITOWOC      CLOUDY    32  24  72 MISG      30.29F
APPLETON       CLOUDY    30  21  69 VRB6      30.27F WCI  24
CLINTONVILLE   CLOUDY    32  23  69 NW5       30.27F WCI  27
OSHKOSH        CLOUDY    32  22  66 NW5       30.27F WCI  27
$$

WIZ032>034-041-042-053>061-031800-
SOUTHWEST WISCONSIN

CITY           SKY/WX    TMP DP  RH WIND       PRES   REMARKS
LA CROSSE      CLOUDY    33  23  66 CALM      30.30F
SPARTA         CLOUDY    32  22  66 CALM      30.29F
VIROQUA        CLOUDY    29  23  77 CALM      30.27S
BOSCOBEL       CLOUDY    33  23  66 CALM      30.32F
PRAIRIE DU CHI CLOUDY    32  23  68 CALM      30.31S
PLATTEVILLE    CLOUDY    32  25  76 S3        30.31S
$$

WIZ056-057-062-063-064-067-068-031800-
SOUTH CENTRAL WISCONSIN

CITY           SKY/WX    TMP DP  RH WIND       PRES   REMARKS
REEDSBURG      CLOUDY    32  22  67 NW5       30.28F WCI  27
BARABOO/DELLS  CLOUDY    31  22  68 NW3       30.28F
LONE ROCK      CLOUDY    32  22  66 S3        30.30F
MINERAL POINT  CLOUDY    34  25  69 NW3       30.28S
MADISON        CLOUDY    30  22  72 NW7       30.30F WCI  23
MIDDLETON      CLOUDY    33  25  73 CALM      30.29F
WATERTOWN      CLOUDY    31  23  71 NW6       30.30F WCI  25
MONROE         PTSUNNY   32  27  80 NE5       30.30S WCI  27
JANESVILLE     CLOUDY    32  25  74 NW7       30.32S WCI  26
$$

WIZ051-052-058>065-066-070>072-031800-
SOUTHEAST WISCONSIN

CITY           SKY/WX    TMP DP  RH WIND       PRES   REMARKS
MILWAUKEE      CLOUDY    33  23  66 W7        30.30F WCI  27
WAUKESHA       CLOUDY    28  21  74 NW7       30.30F WCI  21
MILWAUKEE/TIMM CLOUDY    30  21  69 N5        30.31F WCI  25
RACINE         CLOUDY    32  22  66 VRB5      30.32F WCI  27
BURLINGTON     CLOUDY    31  23  71 CALM      30.31S
KENOSHA        CLOUDY    32  23  69 W6        30.32F WCI  26
FOND DU LAC    CLOUDY    32  21  64 W6        30.29F WCI  26
SHEBOYGAN      CLOUDY    31  23  72 W7        30.29F WCI  24
WEST BEND      CLOUDY    32  25  74 W7        30.29F WCI  26
JUNEAU         CLOUDY    30  22  70 NW3       30.29F
$$

LSZ147-162-031800-
LAKE SUPERIOR

STATION/POSITION TIME  TEMP    WIND        PRES    WAVE
                       AIR SEA DIR/SP/G            HT/PER
                 (UTC) (F)     (DEG/KT/KT) (MB)    (FT/S)
DEVILS ISLAND    1700   33     240/ 12/ 14 1025.4F
PORT WING        1630   30     220/  5/  8 1025.4S
SAXON HARBOR     1630   31     200/  3/  5 1025.1F
$$

LMZ867-665-643>646-031800-
LAKE MICHIGAN

STATION/POSITION TIME  TEMP    WIND        PRES    WAVE
                       AIR SEA DIR/SP/G            HT/PER
                 (UTC) (F)     (DEG/KT/KT) (MB)    (FT/S)
CHAMBERS ISLAND  1640   35     240/  5/  7 1024.4F
NORTHPORT PIER   1640   36     270/  4/ 11 1024.7F
SISTER BAY       1553   36     300/ 10/ 12   N/A
ALGOMA LAKESHORE 1606          270/  7/ 10   N/A
KEWAUNEE LAKESHO 1654   33     290/  9/ 14 1024.7F
SHEBOYGAN LAKESH 1700   32     300/  6/  7 1026.3F
PORT WASHINGTON  1630   33     280/  6/  9 1027.4F
MILWAUKEE LAKESH 1650   32     340/  5/  6   N/A
S MID LAKE BUOY  1650   34 49  290/  6/  8 1026.7F   1/ 3
KENOSHA   LAKESH 1700   31     260/  8/ 10 1026.8
$$

TC  - TEMPERATURE IN CELSIUS
VSB - VISIBILITY IN STATUTE MILES
WCI - WIND CHILL INDEX
HX  - HEAT INDEX





USA.gov is the U.S. government's official web portal to all federal, state and local government web resources and services.